{"data":{"norad_id":68278,"intl_designator":"2026-055S","name":"STARLINK-36982","alt_names":[],"object_type":"PAYLOAD","status":"ACTIVE","operator":null,"country":"US","launch_date":"2026-03-19","launch_site_code":"AFETR","launch_vehicle":null,"mission":null,"orbit_class":"UNKNOWN","rcs_meters":null,"size_class":null,"mass_kg":null,"dimensions":null,"purposes":["comms"],"wikipedia_slug":null,"has_3d_model":false,"image_url":null,"decayed_at":null,"tle_current":{"epoch":"2026-05-25T04:00:03.998880Z","epoch_age_seconds":60968,"freshness":"FRESH","line1":"1 68278U 26055S   26145.16671295 -.00013099  00000+0 -36485-3 0  9996","line2":"2 68278  53.1598 323.0912 0001305 127.3902 221.9493 15.35433081  5690","mean_motion":15.35433081,"eccentricity":0.0001305,"inclination_deg":53.1598,"raan_deg":323.0912,"arg_perigee_deg":127.3902,"mean_anomaly_deg":221.9493,"bstar":-0.00036485,"rev_number":569,"period_min":93.784614765637,"perigee_km":458.74209833628,"apogee_km":460.52675667886,"semimajor_km":6837.7714275076,"source":"CELESTRAK","updated_at":"2026-05-25T13:38:21.893404Z"}}}